Tracking 21992 objects as of 27-Nov-2020
HD Live streaming from Space Station
objects crossing your sky now

INTERCOSMOS 25

Track INTERCOSMOS 25 now!
10-day predictions
INTERCOSMOS 25 is classified as:


NORAD ID: 21819
Int'l Code: 1991-086A
Perigee: 447.9 km
Apogee: 2,881.8 km
Inclination: 82.6 °
Period: 119.5 minutes
Semi major axis: 8035 km
RCS: 7.3989 m2 (large)
Launch date: December 18, 1991
Source: Commonwealth of Independent States (former USSR) (CIS)
Launch site: PLESETSK MISSILE AND SPACE COMPLEX (PKMTR)
aabbcc
Your satellite tracking list
Your tracking list is empty




NASA's NSSDC Master Catalog

Two Line Element Set (TLE):
1 21819U 91086A   20332.12756859  .00000880  00000-0  18177-3 0  9991
2 21819  82.5981  28.8953 1514417 285.3573  58.5564 12.05191471263899
Source of the keplerian elements: AFSPC